Time,TemperatureF,DewpointF,PressureIn,WindDirection,WindDirectionDegrees,WindSpeedMPH,WindSpeedGustMPH,Humidity,HourlyPrecipIn,Conditions,Clouds,dailyrainin,SoftwareType,DateUTC
2013-11-06 00:02:00,63.6,63.0,30.03,East,90,0.0,0.0,100,0.00,,,0.00,Rainwise IP-100,2013-11-06 06:02:00,
2013-11-06 00:07:00,64.0,64.0,30.03,East,90,0.0,0.0,100,0.00,,,0.00,Rainwise IP-100,2013-11-06 06:07:00,
2013-11-06 00:12:00,64.4,64.0,30.02,East,90,0.0,0.0,100,0.00,,,0.00,Rainwise IP-100,2013-11-06 06:12:00,
2013-11-06 00:17:00,64.6,64.0,30.02,ESE,112,2.1,2.1,100,0.00,,,0.00,Rainwise IP-100,2013-11-06 06:17:00,
2013-11-06 00:22:00,64.8,64.0,30.02,SE,135,1.6,2.0,100,0.00,,,0.00,Rainwise IP-100,2013-11-06 06:22:00,
2013-11-06 00:27:00,65.0,65.0,30.02,ESE,112,1.9,2.0,100,0.00,,,0.00,Rainwise IP-100,2013-11-06 06:27:00,
2013-11-06 00:32:00,65.2,65.0,30.02,ESE,112,0.0,2.0,100,0.00,,,0.00,Rainwise IP-100,2013-11-06 06:32:00,
2013-11-06 00:37:00,65.2,65.0,30.02,ESE,112,1.9,1.9,100,0.00,,,0.00,Rainwise IP-100,2013-11-06 06:37:00,
2013-11-06 00:42:00,65.3,65.0,30.02,SE,135,0.0,2.0,100,0.00,,,0.00,Rainwise IP-100,2013-11-06 06:42:00,
2013-11-06 00:47:00,65.3,65.0,30.02,SE,135,1.4,2.0,100,0.00,,,0.00,Rainwise IP-100,2013-11-06 06:47:00,
2013-11-06 00:52:00,65.2,65.0,30.02,ESE,112,0.0,2.0,100,0.00,,,0.00,Rainwise IP-100,2013-11-06 06:52:00,
2013-11-06 00:57:00,65.2,65.0,30.02,ESE,112,0.0,1.0,100,0.00,,,0.00,Rainwise IP-100,2013-11-06 06:57:00,
2013-11-06 01:02:00,65.1,65.0,30.02,ESE,112,0.0,1.0,100,0.00,,,0.00,Rainwise IP-100,2013-11-06 07:02:00,
2013-11-06 01:07:00,65.1,65.0,30.02,ESE,112,0.0,0.0,100,0.00,,,0.00,Rainwise IP-100,2013-11-06 07:07:00,
2013-11-06 01:12:00,65.2,65.0,30.01,ESE,112,0.0,1.0,100,0.00,,,0.00,Rainwise IP-100,2013-11-06 07:12:00,
2013-11-06 01:17:00,65.2,65.0,30.01,ESE,112,0.0,1.0,100,0.00,,,0.00,Rainwise IP-100,2013-11-06 07:17:00,
2013-11-06 01:22:00,65.1,65.0,30.01,ESE,112,0.0,1.0,100,0.00,,,0.00,Rainwise IP-100,2013-11-06 07:22:00,
2013-11-06 01:27:00,65.1,65.0,30.01,ESE,112,0.0,0.0,100,0.00,,,0.00,Rainwise IP-100,2013-11-06 07:27:00,
2013-11-06 01:32:00,65.1,65.0,30.01,ESE,112,0.0,0.0,100,0.00,,,0.00,Rainwise IP-100,2013-11-06 07:32:00,
2013-11-06 01:37:00,65.0,65.0,30.01,ESE,112,0.0,1.0,100,0.00,,,0.00,Rainwise IP-100,2013-11-06 07:37:00,
2013-11-06 01:42:00,64.9,65.0,30.01,ESE,112,0.0,0.0,100,0.00,,,0.00,Rainwise IP-100,2013-11-06 07:42:00,
2013-11-06 01:47:00,64.9,65.0,30.02,ESE,112,0.0,0.0,100,0.00,,,0.00,Rainwise IP-100,2013-11-06 07:47:00,
2013-11-06 01:52:00,64.8,64.0,30.01,ESE,112,0.0,0.0,100,0.00,,,0.00,Rainwise IP-100,2013-11-06 07:52:00,
2013-11-06 01:57:00,64.7,64.0,30.01,ESE,112,0.0,0.0,100,0.00,,,0.00,Rainwise IP-100,2013-11-06 07:57:00,
2013-11-06 02:02:00,64.5,64.0,30.01,ESE,112,0.0,0.0,100,0.00,,,0.00,Rainwise IP-100,2013-11-06 08:02:00,
2013-11-06 02:07:00,63.9,64.0,30.01,ESE,112,0.0,0.0,100,0.00,,,0.00,Rainwise IP-100,2013-11-06 08:07:00,
2013-11-06 02:12:00,63.9,64.0,30.01,ESE,112,0.0,0.0,100,0.00,,,0.00,Rainwise IP-100,2013-11-06 08:12:00,
2013-11-06 02:17:00,64.1,64.0,30.01,East,90,1.4,3.0,100,0.00,,,0.00,Rainwise IP-100,2013-11-06 08:17:00,
2013-11-06 02:22:00,64.7,64.0,30.01,East,90,1.4,4.0,100,0.00,,,0.00,Rainwise IP-100,2013-11-06 08:22:00,
2013-11-06 02:27:00,65.0,65.0,30.01,East,90,1.2,2.0,100,0.00,,,0.00,Rainwise IP-100,2013-11-06 08:27:00,
2013-11-06 02:32:00,65.0,65.0,30.01,East,90,0.0,1.0,100,0.00,,,0.00,Rainwise IP-100,2013-11-06 08:32:00,
2013-11-06 02:37:00,65.1,65.0,30.01,East,90,1.6,2.0,100,0.00,,,0.00,Rainwise IP-100,2013-11-06 08:37:00,
2013-11-06 02:42:00,65.2,65.0,30.01,East,90,0.0,2.0,100,0.00,,,0.00,Rainwise IP-100,2013-11-06 08:42:00,
2013-11-06 02:47:00,65.2,65.0,30.01,ESE,112,2.6,3.0,100,0.00,,,0.00,Rainwise IP-100,2013-11-06 08:47:00,
2013-11-06 02:52:00,65.4,65.0,30.02,ESE,112,0.0,2.0,100,0.00,,,0.00,Rainwise IP-100,2013-11-06 08:52:00,
2013-11-06 02:57:00,65.6,65.0,30.02,ESE,112,0.0,2.0,100,0.00,,,0.00,Rainwise IP-100,2013-11-06 08:57:00,
2013-11-06 03:02:00,65.6,65.0,30.02,East,90,0.0,3.0,100,0.06,,,0.01,Rainwise IP-100,2013-11-06 09:02:00,
2013-11-06 03:07:00,65.7,65.0,30.02,ESE,112,1.2,1.2,100,0.06,,,0.01,Rainwise IP-100,2013-11-06 09:07:00,
2013-11-06 03:12:00,65.8,65.0,30.02,SE,135,3.0,3.0,100,0.00,,,0.01,Rainwise IP-100,2013-11-06 09:12:00,
2013-11-06 03:17:00,65.8,65.0,30.02,SE,135,1.6,4.0,100,0.00,,,0.01,Rainwise IP-100,2013-11-06 09:17:00,
2013-11-06 03:22:00,65.9,66.0,30.02,SSE,157,2.1,3.0,100,0.00,,,0.01,Rainwise IP-100,2013-11-06 09:22:00,
2013-11-06 03:27:00,66.0,66.0,30.02,SSE,157,3.0,3.0,100,0.00,,,0.01,Rainwise IP-100,2013-11-06 09:27:00,
2013-11-06 03:32:00,66.1,66.0,30.03,SSE,157,3.7,4.0,100,0.00,,,0.01,Rainwise IP-100,2013-11-06 09:32:00,
2013-11-06 03:37:00,66.1,66.0,30.03,SSE,157,2.8,4.0,100,0.00,,,0.01,Rainwise IP-100,2013-11-06 09:37:00,
2013-11-06 03:42:00,66.1,66.0,30.03,SSE,157,4.2,4.2,100,0.00,,,0.01,Rainwise IP-100,2013-11-06 09:42:00,
2013-11-06 03:47:00,66.1,66.0,30.03,South,180,3.7,5.0,100,0.00,,,0.01,Rainwise IP-100,2013-11-06 09:47:00,
2013-11-06 03:52:00,66.1,66.0,30.03,SSW,202,0.0,4.0,100,0.00,,,0.01,Rainwise IP-100,2013-11-06 09:52:00,
2013-11-06 03:57:00,66.2,66.0,30.04,WSW,247,2.3,3.0,100,0.00,,,0.01,Rainwise IP-100,2013-11-06 09:57:00,
2013-11-06 04:02:00,66.0,66.0,30.04,WNW,292,2.1,11.0,100,0.00,,,0.01,Rainwise IP-100,2013-11-06 10:02:00,
2013-11-06 04:07:00,65.6,65.0,30.05,WSW,247,5.8,14.0,100,0.00,,,0.01,Rainwise IP-100,2013-11-06 10:07:00,
2013-11-06 04:12:00,65.2,65.0,30.06,North,360,3.7,16.0,100,0.06,,,0.02,Rainwise IP-100,2013-11-06 10:12:00,
2013-11-06 04:17:00,64.8,64.0,30.06,NW,315,6.3,11.0,100,0.06,,,0.02,Rainwise IP-100,2013-11-06 10:17:00,
2013-11-06 04:22:00,63.3,63.0,30.06,NNW,337,5.6,11.0,100,0.12,,,0.04,Rainwise IP-100,2013-11-06 10:22:00,
2013-11-06 04:27:00,61.4,61.0,30.07,WNW,292,8.9,12.0,100,0.84,,,0.16,Rainwise IP-100,2013-11-06 10:27:00,
2013-11-06 04:32:00,60.1,60.0,30.07,NW,315,5.6,14.0,100,0.78,,,0.18,Rainwise IP-100,2013-11-06 10:32:00,
2013-11-06 04:37:00,59.0,59.0,30.07,North,360,2.6,15.0,100,0.12,,,0.18,Rainwise IP-100,2013-11-06 10:37:00,
2013-11-06 04:42:00,58.2,58.0,30.08,WNW,292,4.9,14.0,100,0.06,,,0.18,Rainwise IP-100,2013-11-06 10:42:00,
2013-11-06 04:47:00,57.7,57.0,30.08,North,360,7.2,12.0,100,0.00,,,0.18,Rainwise IP-100,2013-11-06 10:47:00,
2013-11-06 04:52:00,57.4,57.0,30.08,NNW,337,8.4,14.0,100,0.00,,,0.18,Rainwise IP-100,2013-11-06 10:52:00,
2013-11-06 04:57:00,56.9,57.0,30.07,NNW,337,4.9,14.0,100,0.00,,,0.18,Rainwise IP-100,2013-11-06 10:57:00,
2013-11-06 05:02:00,56.5,56.0,30.08,NW,315,10.3,17.0,100,0.00,,,0.18,Rainwise IP-100,2013-11-06 11:02:00,
2013-11-06 05:07:00,56.3,56.0,30.09,NNE,22,6.8,12.0,100,0.00,,,0.18,Rainwise IP-100,2013-11-06 11:07:00,
2013-11-06 05:12:00,55.9,56.0,30.09,NNW,337,4.7,15.0,100,0.00,,,0.18,Rainwise IP-100,2013-11-06 11:12:00,
2013-11-06 05:17:00,55.4,55.0,30.09,NW,315,13.1,14.0,100,0.00,,,0.18,Rainwise IP-100,2013-11-06 11:17:00,
2013-11-06 05:22:00,55.2,55.0,30.10,NW,315,5.1,13.0,100,0.00,,,0.18,Rainwise IP-100,2013-11-06 11:22:00,
2013-11-06 05:27:00,55.0,55.0,30.10,NNW,337,5.1,11.0,100,0.00,,,0.18,Rainwise IP-100,2013-11-06 11:27:00,
2013-11-06 05:32:00,54.7,54.0,30.10,NNW,337,5.6,13.0,100,0.00,,,0.18,Rainwise IP-100,2013-11-06 11:32:00,
2013-11-06 05:37:00,54.4,54.0,30.10,North,360,13.3,13.3,100,0.00,,,0.18,Rainwise IP-100,2013-11-06 11:37:00,
2013-11-06 05:42:00,54.1,54.0,30.10,NNW,337,7.0,14.0,100,0.00,,,0.18,Rainwise IP-100,2013-11-06 11:42:00,
2013-11-06 05:47:00,53.8,53.0,30.11,NNW,337,6.5,13.0,100,0.00,,,0.18,Rainwise IP-100,2013-11-06 11:47:00,
2013-11-06 05:52:00,53.4,53.0,30.11,NNW,337,5.8,15.0,100,0.00,,,0.18,Rainwise IP-100,2013-11-06 11:52:00,
2013-11-06 05:57:00,53.1,53.0,30.10,NNE,22,8.4,13.0,100,0.00,,,0.18,Rainwise IP-100,2013-11-06 11:57:00,
2013-11-06 06:02:00,52.9,53.0,30.12,NNW,337,3.3,14.0,100,0.00,,,0.18,Rainwise IP-100,2013-11-06 12:02:00,
2013-11-06 06:07:00,52.8,53.0,30.12,NNW,337,6.3,12.0,100,0.00,,,0.18,Rainwise IP-100,2013-11-06 12:07:00,
2013-11-06 06:12:00,52.5,53.0,30.13,NNW,337,9.1,12.0,100,0.00,,,0.18,Rainwise IP-100,2013-11-06 12:12:00,
2013-11-06 06:17:00,52.2,52.0,30.13,NNW,337,2.3,14.0,100,0.00,,,0.18,Rainwise IP-100,2013-11-06 12:17:00,
2013-11-06 06:22:00,52.1,52.0,30.14,NW,315,6.8,9.0,100,0.00,,,0.18,Rainwise IP-100,2013-11-06 12:22:00,
2013-11-06 06:27:00,51.8,52.0,30.15,North,360,13.8,16.0,100,0.00,,,0.18,Rainwise IP-100,2013-11-06 12:27:00,
2013-11-06 06:32:00,51.5,52.0,30.14,NW,315,6.8,14.0,100,0.00,,,0.18,Rainwise IP-100,2013-11-06 12:32:00,
2013-11-06 06:37:00,51.1,51.0,30.15,SSW,202,6.1,14.0,99,0.00,,,0.18,Rainwise IP-100,2013-11-06 12:37:00,
2013-11-06 06:42:00,50.9,51.0,30.16,NW,315,7.5,13.0,99,0.00,,,0.18,Rainwise IP-100,2013-11-06 12:42:00,
2013-11-06 06:47:00,50.7,50.0,30.16,NNW,337,5.4,15.0,99,0.00,,,0.18,Rainwise IP-100,2013-11-06 12:47:00,
2013-11-06 06:52:00,50.6,50.0,30.15,NNW,337,7.7,14.0,98,0.00,,,0.18,Rainwise IP-100,2013-11-06 12:52:00,
2013-11-06 06:57:00,50.5,50.0,30.16,NNW,337,10.3,18.0,98,0.00,,,0.18,Rainwise IP-100,2013-11-06 12:57:00,
2013-11-06 07:02:00,50.3,49.0,30.16,North,360,5.8,15.0,97,0.00,,,0.18,Rainwise IP-100,2013-11-06 13:02:00,
2013-11-06 07:07:00,50.2,49.0,30.16,NW,315,2.3,16.0,97,0.06,,,0.19,Rainwise IP-100,2013-11-06 13:07:00,
2013-11-06 07:12:00,49.9,49.0,30.18,West,270,12.6,12.6,97,0.12,,,0.20,Rainwise IP-100,2013-11-06 13:12:00,
2013-11-06 07:17:00,49.7,49.0,30.19,WSW,247,6.5,12.0,97,0.06,,,0.20,Rainwise IP-100,2013-11-06 13:17:00,
2013-11-06 07:22:00,49.5,49.0,30.19,NW,315,1.4,11.0,97,0.00,,,0.20,Rainwise IP-100,2013-11-06 13:22:00,
2013-11-06 07:27:00,49.5,49.0,30.20,NNE,22,9.1,9.1,98,0.00,,,0.20,Rainwise IP-100,2013-11-06 13:27:00,
2013-11-06 07:32:00,49.6,49.0,30.18,NNW,337,0.0,11.0,98,0.00,,,0.20,Rainwise IP-100,2013-11-06 13:32:00,
2013-11-06 07:37:00,49.6,49.0,30.19,North,360,4.9,11.0,98,0.00,,,0.20,Rainwise IP-100,2013-11-06 13:37:00,
2013-11-06 07:42:00,49.6,50.0,30.19,NNW,337,5.8,9.0,99,0.00,,,0.20,Rainwise IP-100,2013-11-06 13:42:00,
2013-11-06 07:47:00,49.6,50.0,30.18,NW,315,11.7,11.7,99,0.00,,,0.20,Rainwise IP-100,2013-11-06 13:47:00,
2013-11-06 07:52:00,49.4,48.0,30.19,NNW,337,5.8,11.0,98,0.00,,,0.20,Rainwise IP-100,2013-11-06 13:52:00,
2013-11-06 07:57:00,49.1,48.0,30.19,NNW,337,2.8,10.0,98,0.00,,,0.20,Rainwise IP-100,2013-11-06 13:57:00,
2013-11-06 08:02:00,48.9,48.0,30.19,NW,315,4.4,12.0,98,0.00,,,0.20,Rainwise IP-100,2013-11-06 14:02:00,
2013-11-06 08:07:00,48.8,48.0,30.20,NW,315,5.4,10.0,98,0.00,,,0.20,Rainwise IP-100,2013-11-06 14:07:00,
2013-11-06 08:12:00,48.5,48.0,30.22,WNW,292,5.6,14.0,98,0.00,,,0.20,Rainwise IP-100,2013-11-06 14:12:00,
2013-11-06 08:17:00,48.1,47.0,30.23,North,360,3.0,12.0,97,0.06,,,0.21,Rainwise IP-100,2013-11-06 14:17:00,
2013-11-06 08:22:00,47.7,47.0,30.23,WNW,292,4.0,13.0,97,0.06,,,0.21,Rainwise IP-100,2013-11-06 14:22:00,
2013-11-06 08:27:00,47.4,47.0,30.24,WNW,292,8.2,12.0,97,0.06,,,0.22,Rainwise IP-100,2013-11-06 14:27:00,
2013-11-06 08:32:00,47.3,46.0,30.23,WNW,292,7.5,13.0,97,0.06,,,0.23,Rainwise IP-100,2013-11-06 14:32:00,
2013-11-06 08:37:00,47.2,46.0,30.24,NNW,337,3.7,11.0,97,0.12,,,0.24,Rainwise IP-100,2013-11-06 14:37:00,
2013-11-06 08:42:00,47.1,46.0,30.24,NNW,337,6.5,7.0,97,0.12,,,0.24,Rainwise IP-100,2013-11-06 14:42:00,
2013-11-06 08:47:00,47.1,46.0,30.25,WNW,292,3.7,7.0,98,0.06,,,0.25,Rainwise IP-100,2013-11-06 14:47:00,
2013-11-06 08:52:00,47.1,46.0,30.25,NW,315,3.3,11.0,98,0.12,,,0.26,Rainwise IP-100,2013-11-06 14:52:00,
2013-11-06 08:57:00,47.1,46.0,30.25,WNW,292,5.8,9.0,98,0.06,,,0.26,Rainwise IP-100,2013-11-06 14:57:00,
2013-11-06 09:02:00,47.0,46.0,30.25,NNW,337,7.0,7.0,98,0.00,,,0.26,Rainwise IP-100,2013-11-06 15:02:00,
2013-11-06 09:07:00,47.0,46.0,30.26,NE,45,3.0,9.0,98,0.00,,,0.26,Rainwise IP-100,2013-11-06 15:07:00,
2013-11-06 09:12:00,47.0,46.0,30.26,NW,315,1.6,8.0,98,0.00,,,0.26,Rainwise IP-100,2013-11-06 15:12:00,
2013-11-06 09:17:00,47.1,46.0,30.26,NNW,337,4.9,9.0,98,0.00,,,0.26,Rainwise IP-100,2013-11-06 15:17:00,
2013-11-06 09:22:00,47.1,46.0,30.26,NNW,337,5.1,9.0,98,0.00,,,0.26,Rainwise IP-100,2013-11-06 15:22:00,
2013-11-06 09:27:00,47.0,46.0,30.27,NW,315,8.2,11.0,97,0.00,,,0.26,Rainwise IP-100,2013-11-06 15:27:00,
2013-11-06 09:32:00,47.1,46.0,30.26,NNW,337,3.7,9.0,97,0.00,,,0.26,Rainwise IP-100,2013-11-06 15:32:00,
2013-11-06 09:37:00,47.3,46.0,30.26,NNW,337,5.4,11.0,97,0.00,,,0.26,Rainwise IP-100,2013-11-06 15:37:00,
2013-11-06 09:42:00,47.5,47.0,30.26,WNW,292,1.2,9.0,97,0.00,,,0.26,Rainwise IP-100,2013-11-06 15:42:00,
2013-11-06 09:47:00,47.8,47.0,30.26,NNW,337,7.0,9.0,96,0.00,,,0.26,Rainwise IP-100,2013-11-06 15:47:00,
2013-11-06 09:52:00,48.0,47.0,30.25,NNE,22,4.9,9.0,96,0.00,,,0.26,Rainwise IP-100,2013-11-06 15:52:00,
2013-11-06 09:57:00,48.1,47.0,30.26,NNW,337,5.1,9.0,95,0.00,,,0.26,Rainwise IP-100,2013-11-06 15:57:00,
2013-11-06 10:02:00,48.2,47.0,30.27,WNW,292,1.2,10.0,95,0.00,,,0.26,Rainwise IP-100,2013-11-06 16:02:00,
2013-11-06 10:07:00,48.2,47.0,30.27,WSW,247,4.4,8.0,94,0.00,,,0.26,Rainwise IP-100,2013-11-06 16:07:00,
2013-11-06 10:12:00,48.2,47.0,30.27,WNW,292,3.7,11.0,94,0.00,,,0.26,Rainwise IP-100,2013-11-06 16:12:00,
2013-11-06 10:17:00,48.3,47.0,30.27,NW,315,1.4,10.0,93,0.00,,,0.26,Rainwise IP-100,2013-11-06 16:17:00,
2013-11-06 10:22:00,48.5,47.0,30.27,WSW,247,7.7,11.0,93,0.00,,,0.26,Rainwise IP-100,2013-11-06 16:22:00,
2013-11-06 10:27:00,48.5,47.0,30.27,North,360,8.4,13.0,92,0.00,,,0.26,Rainwise IP-100,2013-11-06 16:27:00,
2013-11-06 10:32:00,48.6,47.0,30.27,WNW,292,5.8,11.0,91,0.00,,,0.26,Rainwise IP-100,2013-11-06 16:32:00,
2013-11-06 10:37:00,48.9,47.0,30.27,NW,315,6.8,11.0,91,0.00,,,0.26,Rainwise IP-100,2013-11-06 16:37:00,
2013-11-06 10:42:00,49.3,47.0,30.28,NW,315,9.3,9.3,91,0.00,,,0.26,Rainwise IP-100,2013-11-06 16:42:00,
2013-11-06 10:47:00,49.7,47.0,30.28,NW,315,5.8,13.0,90,0.00,,,0.26,Rainwise IP-100,2013-11-06 16:47:00,
2013-11-06 10:52:00,49.9,47.0,30.28,NW,315,11.7,11.7,88,0.00,,,0.26,Rainwise IP-100,2013-11-06 16:52:00,
2013-11-06 10:57:00,50.1,46.0,30.29,North,360,6.3,16.0,87,0.00,,,0.26,Rainwise IP-100,2013-11-06 16:57:00,
2013-11-06 11:02:00,50.5,47.0,30.28,NW,315,7.0,12.0,86,0.00,,,0.26,Rainwise IP-100,2013-11-06 17:02:00,
2013-11-06 11:07:00,51.0,47.0,30.28,NNW,337,7.5,12.0,85,0.00,,,0.26,Rainwise IP-100,2013-11-06 17:07:00,
2013-11-06 11:12:00,51.3,47.0,30.28,NW,315,7.0,11.0,85,0.00,,,0.26,Rainwise IP-100,2013-11-06 17:12:00,
2013-11-06 11:17:00,51.5,47.0,30.28,NNW,337,4.7,12.0,84,0.00,,,0.26,Rainwise IP-100,2013-11-06 17:17:00,
2013-11-06 11:22:00,51.6,47.0,30.28,NNW,337,10.5,12.0,84,0.00,,,0.26,Rainwise IP-100,2013-11-06 17:22:00,
2013-11-06 11:27:00,51.7,47.0,30.29,NW,315,7.5,11.0,83,0.00,,,0.26,Rainwise IP-100,2013-11-06 17:27:00,
2013-11-06 11:32:00,52.0,47.0,30.29,NNW,337,7.0,11.0,83,0.00,,,0.26,Rainwise IP-100,2013-11-06 17:32:00,
2013-11-06 11:37:00,52.1,47.0,30.29,NNW,337,7.2,13.0,82,0.00,,,0.26,Rainwise IP-100,2013-11-06 17:37:00,
2013-11-06 11:42:00,52.1,46.0,30.29,NNW,337,6.8,13.0,80,0.00,,,0.26,Rainwise IP-100,2013-11-06 17:42:00,
2013-11-06 11:47:00,52.3,46.0,30.29,NNE,22,2.3,14.0,80,0.00,,,0.26,Rainwise IP-100,2013-11-06 17:47:00,
2013-11-06 11:52:00,52.6,47.0,30.29,NNW,337,5.8,13.0,79,0.00,,,0.26,Rainwise IP-100,2013-11-06 17:52:00,
2013-11-06 11:57:00,53.1,46.0,30.29,NNW,337,2.3,11.0,78,0.00,,,0.26,Rainwise IP-100,2013-11-06 17:57:00,
2013-11-06 12:02:00,53.8,47.0,30.28,NW,315,6.8,11.0,78,0.00,,,0.26,Rainwise IP-100,2013-11-06 18:02:00,
2013-11-06 12:07:00,54.6,47.0,30.29,NNE,22,11.0,14.0,76,0.00,,,0.26,Rainwise IP-100,2013-11-06 18:07:00,
2013-11-06 12:12:00,54.9,47.0,30.29,NNW,337,4.0,16.0,75,0.00,,,0.26,Rainwise IP-100,2013-11-06 18:12:00,
2013-11-06 12:17:00,54.9,47.0,30.29,NNW,337,4.0,11.0,74,0.00,,,0.26,Rainwise IP-100,2013-11-06 18:17:00,
2013-11-06 12:22:00,55.4,47.0,30.28,WNW,292,1.4,13.0,75,0.00,,,0.26,Rainwise IP-100,2013-11-06 18:22:00,
2013-11-06 12:27:00,56.4,48.0,30.28,WNW,292,6.5,12.0,74,0.00,,,0.26,Rainwise IP-100,2013-11-06 18:27:00,
2013-11-06 12:32:00,57.1,48.0,30.28,WNW,292,6.1,13.0,73,0.00,,,0.26,Rainwise IP-100,2013-11-06 18:32:00,
2013-11-06 12:37:00,57.3,47.0,30.28,NNW,337,6.3,13.0,71,0.00,,,0.26,Rainwise IP-100,2013-11-06 18:37:00,
2013-11-06 12:42:00,57.6,48.0,30.27,NNW,337,4.0,12.0,70,0.00,,,0.26,Rainwise IP-100,2013-11-06 18:42:00,
2013-11-06 12:47:00,57.8,47.0,30.28,NNW,337,5.1,13.0,69,0.00,,,0.26,Rainwise IP-100,2013-11-06 18:47:00,
2013-11-06 12:52:00,58.0,48.0,30.28,NW,315,6.8,11.0,69,0.00,,,0.26,Rainwise IP-100,2013-11-06 18:52:00,
2013-11-06 12:57:00,58.5,48.0,30.27,NNW,337,4.4,13.0,68,0.00,,,0.26,Rainwise IP-100,2013-11-06 18:57:00,
2013-11-06 13:02:00,58.9,48.0,30.27,NNW,337,11.4,11.4,67,0.00,,,0.26,Rainwise IP-100,2013-11-06 19:02:00,
2013-11-06 13:07:00,59.1,48.0,30.27,WNW,292,3.3,11.0,67,0.00,,,0.26,Rainwise IP-100,2013-11-06 19:07:00,
2013-11-06 13:12:00,59.6,48.0,30.27,NW,315,7.5,11.0,67,0.00,,,0.26,Rainwise IP-100,2013-11-06 19:12:00,
2013-11-06 13:17:00,60.1,48.0,30.26,NNE,22,7.2,13.0,66,0.00,,,0.26,Rainwise IP-100,2013-11-06 19:17:00,
2013-11-06 13:22:00,60.4,48.0,30.26,NNW,337,9.6,11.0,65,0.00,,,0.26,Rainwise IP-100,2013-11-06 19:22:00,
2013-11-06 13:27:00,60.3,47.0,30.27,NNW,337,4.0,13.0,63,0.00,,,0.26,Rainwise IP-100,2013-11-06 19:27:00,
2013-11-06 13:32:00,60.2,47.0,30.26,NNW,337,4.7,12.0,62,0.00,,,0.26,Rainwise IP-100,2013-11-06 19:32:00,
2013-11-06 13:37:00,60.6,47.0,30.26,WNW,292,8.2,11.0,63,0.00,,,0.26,Rainwise IP-100,2013-11-06 19:37:00,
2013-11-06 13:42:00,60.9,47.0,30.26,NNE,22,7.0,14.0,62,0.00,,,0.26,Rainwise IP-100,2013-11-06 19:42:00,
2013-11-06 13:47:00,61.1,47.0,30.26,North,360,11.0,15.0,61,0.00,,,0.26,Rainwise IP-100,2013-11-06 19:47:00,
2013-11-06 13:52:00,61.3,47.0,30.26,WNW,292,7.0,12.0,59,0.00,,,0.26,Rainwise IP-100,2013-11-06 19:52:00,
2013-11-06 13:57:00,61.6,47.0,30.26,NW,315,6.1,11.0,58,0.00,,,0.26,Rainwise IP-100,2013-11-06 19:57:00,
2013-11-06 14:02:00,62.0,47.0,30.26,North,360,6.5,12.0,57,0.00,,,0.26,Rainwise IP-100,2013-11-06 20:02:00,
2013-11-06 14:07:00,62.0,46.0,30.26,NNE,22,2.8,13.0,56,0.00,,,0.26,Rainwise IP-100,2013-11-06 20:07:00,
2013-11-06 14:12:00,62.3,46.0,30.26,NW,315,4.0,10.0,56,0.00,,,0.26,Rainwise IP-100,2013-11-06 20:12:00,
2013-11-06 14:17:00,62.7,47.0,30.26,WNW,292,7.2,10.0,56,0.00,,,0.26,Rainwise IP-100,2013-11-06 20:17:00,
2013-11-06 14:22:00,62.7,46.0,30.26,NNE,22,5.8,12.0,55,0.00,,,0.26,Rainwise IP-100,2013-11-06 20:22:00,
2013-11-06 14:27:00,62.7,46.0,30.26,NW,315,1.6,12.0,54,0.00,,,0.26,Rainwise IP-100,2013-11-06 20:27:00,
2013-11-06 14:32:00,62.8,46.0,30.26,NW,315,9.3,14.0,54,0.00,,,0.26,Rainwise IP-100,2013-11-06 20:32:00,
2013-11-06 14:37:00,62.8,45.0,30.26,NNW,337,7.7,12.0,53,0.00,,,0.26,Rainwise IP-100,2013-11-06 20:37:00,
2013-11-06 14:42:00,63.0,46.0,30.26,WNW,292,7.9,11.0,53,0.00,,,0.26,Rainwise IP-100,2013-11-06 20:42:00,
2013-11-06 14:47:00,63.0,46.0,30.26,NNW,337,3.0,10.0,53,0.00,,,0.26,Rainwise IP-100,2013-11-06 20:47:00,
2013-11-06 14:52:00,63.2,45.0,30.26,North,360,5.6,9.0,52,0.00,,,0.26,Rainwise IP-100,2013-11-06 20:52:00,
2013-11-06 14:57:00,63.5,46.0,30.26,NNW,337,1.9,11.0,52,0.00,,,0.26,Rainwise IP-100,2013-11-06 20:57:00,
2013-11-06 15:02:00,63.4,45.0,30.26,NNW,337,7.5,11.0,50,0.00,,,0.26,Rainwise IP-100,2013-11-06 21:02:00,
2013-11-06 15:07:00,63.2,43.0,30.26,North,360,5.8,10.0,49,0.00,,,0.26,Rainwise IP-100,2013-11-06 21:07:00,
2013-11-06 15:12:00,63.2,43.0,30.26,NW,315,2.6,10.0,49,0.00,,,0.26,Rainwise IP-100,2013-11-06 21:12:00,
2013-11-06 15:17:00,63.4,44.0,30.26,NNW,337,4.4,11.0,49,0.00,,,0.26,Rainwise IP-100,2013-11-06 21:17:00,
2013-11-06 15:22:00,63.6,43.0,30.26,WSW,247,2.3,8.0,48,0.00,,,0.26,Rainwise IP-100,2013-11-06 21:22:00,
2013-11-06 15:27:00,64.0,44.0,30.26,North,360,2.1,9.0,49,0.00,,,0.26,Rainwise IP-100,2013-11-06 21:27:00,
2013-11-06 15:32:00,64.2,44.0,30.27,NNE,22,6.8,11.0,48,0.00,,,0.26,Rainwise IP-100,2013-11-06 21:32:00,
2013-11-06 15:37:00,64.1,43.0,30.26,NNE,22,4.7,10.0,47,0.00,,,0.26,Rainwise IP-100,2013-11-06 21:37:00,
2013-11-06 15:42:00,64.1,43.0,30.26,NNE,22,5.6,11.0,46,0.00,,,0.26,Rainwise IP-100,2013-11-06 21:42:00,
2013-11-06 15:47:00,64.1,43.0,30.26,NNE,22,9.1,12.0,46,0.00,,,0.26,Rainwise IP-100,2013-11-06 21:47:00,
2013-11-06 15:52:00,64.0,43.0,30.26,WNW,292,5.4,11.0,46,0.00,,,0.26,Rainwise IP-100,2013-11-06 21:52:00,
2013-11-06 15:57:00,63.9,43.0,30.26,NNE,22,8.6,10.0,47,0.00,,,0.26,Rainwise IP-100,2013-11-06 21:57:00,
2013-11-06 16:02:00,63.7,43.0,30.26,NNW,337,5.4,12.0,47,0.00,,,0.26,Rainwise IP-100,2013-11-06 22:02:00,
2013-11-06 16:07:00,63.6,43.0,30.26,North,360,6.8,13.0,47,0.00,,,0.26,Rainwise IP-100,2013-11-06 22:07:00,
2013-11-06 16:12:00,63.8,43.0,30.27,NNW,337,3.3,8.0,48,0.00,,,0.26,Rainwise IP-100,2013-11-06 22:12:00,
2013-11-06 16:17:00,63.9,43.0,30.27,North,360,7.0,11.0,47,0.00,,,0.26,Rainwise IP-100,2013-11-06 22:17:00,
2013-11-06 16:22:00,63.6,42.0,30.27,NNE,22,5.8,11.0,46,0.00,,,0.26,Rainwise IP-100,2013-11-06 22:22:00,
2013-11-06 16:27:00,63.0,41.0,30.27,NNW,337,3.7,12.0,45,0.00,,,0.26,Rainwise IP-100,2013-11-06 22:27:00,
2013-11-06 16:32:00,62.9,41.0,30.27,NNE,22,5.4,11.0,45,0.00,,,0.26,Rainwise IP-100,2013-11-06 22:32:00,
2013-11-06 16:37:00,62.9,42.0,30.27,NNW,337,4.7,9.0,46,0.00,,,0.26,Rainwise IP-100,2013-11-06 22:37:00,
2013-11-06 16:42:00,62.8,41.0,30.27,NNW,337,3.0,11.0,46,0.00,,,0.26,Rainwise IP-100,2013-11-06 22:42:00,
2013-11-06 16:47:00,62.7,42.0,30.27,NNW,337,2.8,8.0,47,0.00,,,0.26,Rainwise IP-100,2013-11-06 22:47:00,
2013-11-06 16:52:00,62.6,42.0,30.28,WNW,292,1.2,8.0,47,0.00,,,0.26,Rainwise IP-100,2013-11-06 22:52:00,
2013-11-06 16:57:00,62.4,42.0,30.27,NNE,22,3.3,5.0,47,0.00,,,0.26,Rainwise IP-100,2013-11-06 22:57:00,
2013-11-06 17:02:00,62.1,41.0,30.27,NW,315,5.6,9.0,47,0.00,,,0.26,Rainwise IP-100,2013-11-06 23:02:00,
2013-11-06 17:07:00,61.8,41.0,30.28,NNW,337,3.7,7.0,47,0.00,,,0.26,Rainwise IP-100,2013-11-06 23:07:00,
2013-11-06 17:12:00,61.4,41.0,30.27,NNW,337,4.9,5.0,48,0.00,,,0.26,Rainwise IP-100,2013-11-06 23:12:00,
2013-11-06 17:17:00,61.1,41.0,30.28,NNW,337,2.1,6.0,49,0.00,,,0.26,Rainwise IP-100,2013-11-06 23:17:00,
2013-11-06 17:22:00,60.7,41.0,30.28,NNW,337,1.6,5.0,49,0.00,,,0.26,Rainwise IP-100,2013-11-06 23:22:00,
2013-11-06 17:27:00,60.1,41.0,30.28,NNW,337,1.6,5.0,50,0.00,,,0.26,Rainwise IP-100,2013-11-06 23:27:00,
2013-11-06 17:32:00,59.5,41.0,30.28,NNW,337,1.4,4.0,50,0.00,,,0.26,Rainwise IP-100,2013-11-06 23:32:00,
2013-11-06 17:37:00,58.8,41.0,30.28,NNW,337,1.4,3.0,51,0.00,,,0.26,Rainwise IP-100,2013-11-06 23:37:00,
2013-11-06 17:42:00,58.0,41.0,30.29,NNW,337,1.4,2.0,53,0.00,,,0.26,Rainwise IP-100,2013-11-06 23:42:00,
2013-11-06 17:47:00,57.2,41.0,30.28,NNW,337,1.9,2.0,55,0.00,,,0.26,Rainwise IP-100,2013-11-06 23:47:00,
2013-11-06 17:52:00,56.3,41.0,30.28,WNW,292,2.3,3.0,57,0.00,,,0.26,Rainwise IP-100,2013-11-06 23:52:00,
2013-11-06 17:57:00,55.3,41.0,30.29,NW,315,1.9,4.0,59,0.00,,,0.26,Rainwise IP-100,2013-11-06 23:57:00,
2013-11-06 18:02:00,54.7,41.0,30.29,NW,315,2.6,3.0,60,0.00,,,0.26,Rainwise IP-100,2013-11-07 00:02:00,
2013-11-06 18:07:00,54.2,41.0,30.29,NW,315,1.4,3.0,61,0.00,,,0.26,Rainwise IP-100,2013-11-07 00:07:00,
2013-11-06 18:12:00,53.7,40.0,30.30,NW,315,1.6,2.0,62,0.00,,,0.26,Rainwise IP-100,2013-11-07 00:12:00,
2013-11-06 18:17:00,53.2,40.0,30.30,NW,315,0.0,2.0,63,0.00,,,0.26,Rainwise IP-100,2013-11-07 00:17:00,
2013-11-06 18:22:00,52.7,41.0,30.30,NW,315,0.0,1.0,65,0.00,,,0.26,Rainwise IP-100,2013-11-07 00:22:00,
2013-11-06 18:27:00,52.2,41.0,30.30,NW,315,1.2,2.0,67,0.00,,,0.26,Rainwise IP-100,2013-11-07 00:27:00,
2013-11-06 18:32:00,51.7,42.0,30.31,NW,315,0.0,1.0,69,0.00,,,0.26,Rainwise IP-100,2013-11-07 00:32:00,
2013-11-06 18:37:00,51.2,42.0,30.31,NW,315,0.0,0.0,71,0.00,,,0.26,Rainwise IP-100,2013-11-07 00:37:00,
2013-11-06 18:42:00,50.5,42.0,30.31,NW,315,1.4,2.0,73,0.00,,,0.26,Rainwise IP-100,2013-11-07 00:42:00,
2013-11-06 18:47:00,50.1,42.0,30.31,NW,315,0.0,2.0,74,0.00,,,0.26,Rainwise IP-100,2013-11-07 00:47:00,
2013-11-06 18:52:00,49.9,42.0,30.31,NW,315,1.6,2.0,74,0.00,,,0.26,Rainwise IP-100,2013-11-07 00:52:00,
2013-11-06 18:57:00,49.6,42.0,30.31,NW,315,0.0,1.0,75,0.00,,,0.26,Rainwise IP-100,2013-11-07 00:57:00,
2013-11-06 19:02:00,49.4,41.0,30.32,NW,315,1.2,1.2,74,0.00,,,0.26,Rainwise IP-100,2013-11-07 01:02:00,
2013-11-06 19:07:00,49.2,41.0,30.32,NW,315,0.0,2.0,75,0.00,,,0.26,Rainwise IP-100,2013-11-07 01:07:00,
2013-11-06 19:12:00,49.0,42.0,30.33,NW,315,2.3,2.3,77,0.00,,,0.26,Rainwise IP-100,2013-11-07 01:12:00,
2013-11-06 19:17:00,48.8,42.0,30.32,NW,315,0.0,2.0,76,0.00,,,0.26,Rainwise IP-100,2013-11-07 01:17:00,
2013-11-06 19:22:00,48.7,42.0,30.33,NW,315,1.2,2.0,76,0.00,,,0.26,Rainwise IP-100,2013-11-07 01:22:00,
2013-11-06 19:27:00,48.5,42.0,30.33,NW,315,1.2,2.0,76,0.00,,,0.26,Rainwise IP-100,2013-11-07 01:27:00,
2013-11-06 19:32:00,48.3,41.0,30.33,NW,315,0.0,2.0,76,0.00,,,0.26,Rainwise IP-100,2013-11-07 01:32:00,
2013-11-06 19:37:00,48.1,41.0,30.33,NNW,337,1.6,1.6,77,0.00,,,0.26,Rainwise IP-100,2013-11-07 01:37:00,
2013-11-06 19:42:00,47.8,41.0,30.33,NNW,337,0.0,1.0,78,0.00,,,0.26,Rainwise IP-100,2013-11-07 01:42:00,
2013-11-06 19:47:00,47.6,41.0,30.33,NNW,337,0.0,2.0,79,0.00,,,0.26,Rainwise IP-100,2013-11-07 01:47:00,
2013-11-06 19:52:00,47.3,40.0,30.33,NNW,337,1.2,3.0,79,0.00,,,0.26,Rainwise IP-100,2013-11-07 01:52:00,
2013-11-06 19:57:00,47.2,40.0,30.33,NNW,337,0.0,3.0,79,0.00,,,0.26,Rainwise IP-100,2013-11-07 01:57:00,
2013-11-06 20:02:00,47.3,40.0,30.33,NW,315,1.2,3.0,77,0.00,,,0.26,Rainwise IP-100,2013-11-07 02:02:00,
2013-11-06 20:07:00,47.4,40.0,30.33,NW,315,0.0,2.0,76,0.00,,,0.26,Rainwise IP-100,2013-11-07 02:07:00,
2013-11-06 20:12:00,47.4,40.0,30.34,NW,315,0.0,2.0,76,0.00,,,0.26,Rainwise IP-100,2013-11-07 02:12:00,
2013-11-06 20:17:00,47.3,40.0,30.34,NNW,337,2.8,3.0,77,0.00,,,0.26,Rainwise IP-100,2013-11-07 02:17:00,
2013-11-06 20:22:00,47.3,39.0,30.34,NNW,337,1.2,3.0,76,0.00,,,0.26,Rainwise IP-100,2013-11-07 02:22:00,
2013-11-06 20:27:00,47.2,39.0,30.34,NNW,337,0.0,3.0,76,0.00,,,0.26,Rainwise IP-100,2013-11-07 02:27:00,
2013-11-06 20:32:00,47.0,39.0,30.34,NNW,337,1.2,1.2,76,0.00,,,0.26,Rainwise IP-100,2013-11-07 02:32:00,
2013-11-06 20:37:00,46.9,39.0,30.35,NNE,22,1.9,3.0,76,0.00,,,0.26,Rainwise IP-100,2013-11-07 02:37:00,
2013-11-06 20:42:00,47.0,39.0,30.35,NNE,22,0.0,3.0,76,0.00,,,0.26,Rainwise IP-100,2013-11-07 02:42:00,
2013-11-06 20:47:00,47.0,39.0,30.35,NNE,22,0.0,1.0,76,0.00,,,0.26,Rainwise IP-100,2013-11-07 02:47:00,
2013-11-06 20:52:00,46.6,40.0,30.35,NNE,22,0.0,1.0,77,0.00,,,0.26,Rainwise IP-100,2013-11-07 02:52:00,
2013-11-06 20:57:00,46.3,39.0,30.36,NNE,22,0.0,1.0,78,0.00,,,0.26,Rainwise IP-100,2013-11-07 02:57:00,
2013-11-06 21:02:00,46.1,39.0,30.35,NNW,337,1.2,3.0,79,0.00,,,0.26,Rainwise IP-100,2013-11-07 03:02:00,
2013-11-06 21:07:00,46.1,39.0,30.35,NNW,337,2.8,3.0,78,0.00,,,0.26,Rainwise IP-100,2013-11-07 03:07:00,
2013-11-06 21:12:00,46.3,39.0,30.36,NW,315,2.1,3.0,77,0.00,,,0.26,Rainwise IP-100,2013-11-07 03:12:00,
2013-11-06 21:17:00,46.4,39.0,30.36,NNW,337,0.0,4.0,76,0.00,,,0.26,Rainwise IP-100,2013-11-07 03:17:00,
2013-11-06 21:22:00,46.4,38.0,30.36,North,360,1.4,3.0,75,0.00,,,0.26,Rainwise IP-100,2013-11-07 03:22:00,
2013-11-06 21:27:00,46.4,38.0,30.36,NNW,337,1.2,2.0,75,0.00,,,0.26,Rainwise IP-100,2013-11-07 03:27:00,
2013-11-06 21:32:00,46.2,39.0,30.36,NNW,337,2.1,2.1,76,0.00,,,0.26,Rainwise IP-100,2013-11-07 03:32:00,
2013-11-06 21:37:00,45.8,39.0,30.36,NNW,337,0.0,2.0,77,0.00,,,0.26,Rainwise IP-100,2013-11-07 03:37:00,
2013-11-06 21:42:00,45.3,38.0,30.36,NW,315,0.0,2.0,78,0.00,,,0.26,Rainwise IP-100,2013-11-07 03:42:00,
2013-11-06 21:47:00,44.9,39.0,30.36,NW,315,2.1,2.1,79,0.00,,,0.26,Rainwise IP-100,2013-11-07 03:47:00,
2013-11-06 21:52:00,44.5,39.0,30.36,NW,315,0.0,2.0,81,0.00,,,0.26,Rainwise IP-100,2013-11-07 03:52:00,
2013-11-06 21:57:00,44.1,38.0,30.36,NW,315,0.0,1.0,81,0.00,,,0.26,Rainwise IP-100,2013-11-07 03:57:00,
2013-11-06 22:02:00,43.9,38.0,30.36,NW,315,0.0,0.0,81,0.00,,,0.26,Rainwise IP-100,2013-11-07 04:02:00,
2013-11-06 22:07:00,43.7,39.0,30.36,NW,315,1.6,1.6,82,0.00,,,0.26,Rainwise IP-100,2013-11-07 04:07:00,
2013-11-06 22:12:00,43.4,38.0,30.37,NW,315,0.0,2.0,82,0.00,,,0.26,Rainwise IP-100,2013-11-07 04:12:00,
2013-11-06 22:17:00,43.2,38.0,30.37,NW,315,0.0,0.0,83,0.00,,,0.26,Rainwise IP-100,2013-11-07 04:17:00,
2013-11-06 22:22:00,42.8,39.0,30.36,NW,315,1.2,0.0,84,0.00,,,0.26,Rainwise IP-100,2013-11-07 04:22:00,
2013-11-06 22:27:00,42.7,39.0,30.37,NW,315,0.0,2.0,84,0.00,,,0.26,Rainwise IP-100,2013-11-07 04:27:00,
2013-11-06 22:32:00,42.7,39.0,30.37,NW,315,1.2,2.0,84,0.00,,,0.26,Rainwise IP-100,2013-11-07 04:32:00,
2013-11-06 22:37:00,42.6,39.0,30.37,NW,315,0.0,1.0,85,0.00,,,0.26,Rainwise IP-100,2013-11-07 04:37:00,
2013-11-06 22:42:00,42.4,38.0,30.37,NW,315,1.4,2.0,85,0.00,,,0.26,Rainwise IP-100,2013-11-07 04:42:00,
2013-11-06 22:47:00,42.2,38.0,30.37,North,360,1.4,3.0,85,0.00,,,0.26,Rainwise IP-100,2013-11-07 04:47:00,
2013-11-06 22:52:00,42.1,38.0,30.37,NNW,337,1.6,4.0,85,0.00,,,0.26,Rainwise IP-100,2013-11-07 04:52:00,
2013-11-06 22:57:00,42.0,38.0,30.37,NNW,337,0.0,2.0,86,0.00,,,0.26,Rainwise IP-100,2013-11-07 04:57:00,
2013-11-06 23:01:00,41.8,38.0,30.37,NNW,337,1.4,2.0,86,0.00,,,0.26,Rainwise IP-100,2013-11-07 05:01:00,
2013-11-06 23:06:00,42.0,38.0,30.38,North,360,2.3,4.0,86,0.00,,,0.26,Rainwise IP-100,2013-11-07 05:06:00,
2013-11-06 23:11:00,42.9,39.0,30.38,North,360,1.9,4.0,84,0.00,,,0.26,Rainwise IP-100,2013-11-07 05:11:00,
2013-11-06 23:16:00,43.7,39.0,30.38,NNE,22,3.7,3.7,82,0.00,,,0.26,Rainwise IP-100,2013-11-07 05:16:00,
2013-11-06 23:21:00,44.0,38.0,30.38,North,360,2.1,5.0,80,0.00,,,0.26,Rainwise IP-100,2013-11-07 05:21:00,
2013-11-06 23:26:00,44.2,38.0,30.38,North,360,1.4,4.0,79,0.00,,,0.26,Rainwise IP-100,2013-11-07 05:26:00,
2013-11-06 23:31:00,44.1,38.0,30.38,NNW,337,0.0,4.0,79,0.00,,,0.26,Rainwise IP-100,2013-11-07 05:31:00,
2013-11-06 23:36:00,43.8,38.0,30.37,NNW,337,0.0,1.0,79,0.00,,,0.26,Rainwise IP-100,2013-11-07 05:36:00,
2013-11-06 23:41:00,43.3,37.0,30.38,NNW,337,0.0,1.0,80,0.00,,,0.26,Rainwise IP-100,2013-11-07 05:41:00,
2013-11-06 23:46:00,42.7,38.0,30.38,NNW,337,1.6,3.0,81,0.00,,,0.26,Rainwise IP-100,2013-11-07 05:46:00,
2013-11-06 23:51:00,42.3,37.0,30.38,NNW,337,2.8,5.0,82,0.00,,,0.26,Rainwise IP-100,2013-11-07 05:51:00,
2013-11-06 23:56:00,42.4,37.0,30.38,NNW,337,1.2,4.0,83,0.00,,,0.26,Rainwise IP-100,2013-11-07 05:56:00,